This is the latest recevied weather packets stored in our database for station/object KG2V. If no packets are shown the sender has not sent any weather packets the latest 10 day(s).
| Time | Temp. | Humidity | Pressure | Rain* | Wind** | Luminosity | Snow |
|---|---|---|---|---|---|---|---|
| 1777645184 | 8.89° C | 68% | 1008.9 hPa | 0 mm | - | 276 W/m² | - |
| 1777644880 | 8.89° C | 66% | 1008.9 hPa | 0 mm | - | 363 W/m² | - |
| 1777644579 | 8.89° C | 65% | 1008.7 hPa | 0 mm | - | 328 W/m² | - |
| 1777644274 | 8.33° C | 63% | 1008.9 hPa | 0 mm | - | 215 W/m² | - |
| 1777643970 | 8.89° C | 68% | 1009 hPa | 0 mm | - | 185 W/m² | - |
| 1777643668 | 8.89° C | 68% | 1008.8 hPa | 0 mm | - | 221 W/m² | - |
| 1777643365 | 8.33° C | 68% | 1009.3 hPa | 0 mm | - | 317 W/m² | - |
| 1777643062 | 7.78° C | 72% | 1009.1 hPa | 0 mm | - | 97 W/m² | - |
| 1777642758 | 7.78° C | 73% | 1009.1 hPa | 0 mm | - | 69 W/m² | - |
| 1777642455 | 7.78° C | 74% | 1009.2 hPa | 0 mm | - | 141 W/m² | - |
| 1777642151 | 7.22° C | 75% | 1009 hPa | 0 mm | - | 63 W/m² | - |
| 1777641849 | 7.22° C | 74% | 1009.2 hPa | 0 mm | - | 107 W/m² | - |
| 1777641544 | 7.22° C | 74% | 1009.1 hPa | 0 mm | - | 147 W/m² | - |
| 1777641243 | 7.22° C | 75% | 1009.2 hPa | 0 mm | - | 45 W/m² | - |
| 1777640941 | 6.67° C | 77% | 1009.3 hPa | 0 mm | - | 46 W/m² | - |
| 1777640637 | 6.67° C | 75% | 1009.4 hPa | 0 mm | - | 45 W/m² | - |
| 1777640333 | 6.67° C | 76% | 1009.1 hPa | 0 mm | - | 58 W/m² | - |
| 1777640030 | 6.11° C | 76% | 1009.2 hPa | 0 mm | - | 73 W/m² | - |
| 1777639727 | 6.11° C | 78% | 1009.2 hPa | 0 mm | - | 52 W/m² | - |
| 1777639425 | 6.11° C | 79% | 1009.3 hPa | 0 mm | - | 44 W/m² | - |
| 1777639120 | 6.11° C | 79% | 1009.4 hPa | 0 mm | - | 58 W/m² | - |
| 1777638817 | 5.56° C | 79% | 1009.3 hPa | 0 mm | - | 51 W/m² | - |
| 1777638512 | 5.56° C | 82% | 1009.4 hPa | 0 mm | - | 42 W/m² | - |
| 1777638210 | 5° C | 81% | 1009.4 hPa | 0 mm | - | 39 W/m² | - |
| 1777637905 | 5° C | 84% | 1009.4 hPa | 0 mm | - | 44 W/m² | - |
* Rain latest hour (hover to see other rain measurements)
** Current wind speed in m/s (hover to see current wind gust speed)